| time (UTC) | temp F | wind direction | speed MPH | gust MPH | rain 1hr in | rain 24hr in | rain mn in | humidity % | barometer mb |
| 20260508030324 | 61 | 0.0 | 0.0 | 0.00 | 0.00 | 0.00 | 90 | -0.1 | |
| 20260508025828 | 61 | 0.0 | 0.0 | 0.00 | 0.00 | 0.00 | 90 | -0.1 | |
| 20260508024835 | 61 | 0.0 | 0.0 | 0.00 | 0.00 | 0.00 | 89 | -0.1 | |
| 20260508024341 | 61 | 0.0 | 0.0 | 0.00 | 0.00 | 0.00 | 89 | -0.1 | |
| 20260508023828 | 62 | 0.0 | 0.0 | 0.00 | 0.00 | 0.00 | 89 | -0.1 | |
| 20260508023335 | 62 | 0.0 | 0.0 | 0.00 | 0.00 | 0.00 | 88 | -0.1 | |
| 20260508022824 | 62 | 278 | 4.0 | 4.0 | 0.00 | 0.00 | 0.00 | 88 | -0.1 |
| 20260508021836 | 62 | 243 | 1.0 | 5.0 | 0.00 | 0.00 | 0.00 | 87 | -0.1 |
| 20260508020324 | 63 | 252 | 3.0 | 6.0 | 0.00 | 0.00 | 0.00 | 86 | -0.1 |
| 20260508015831 | 63 | 233 | 3.0 | 8.0 | 0.00 | 0.00 | 0.00 | 86 | -0.1 |
| 20260508014836 | 64 | 240 | 3.0 | 7.0 | 0.00 | 0.00 | 0.00 | 85 | -0.1 |
| 20260508012323 | 65 | 281 | 3.0 | 7.0 | 0.00 | 0.00 | 0.00 | 83 | -0.1 |
| 20260508010329 | 65 | 311 | 2.0 | 7.0 | 0.00 | 0.00 | 0.00 | 83 | -0.1 |
| 20260508004823 | 65 | 294 | 5.0 | 6.0 | 0.00 | 0.00 | 0.00 | 84 | -0.1 |
| 20260508004329 | 65 | 290 | 2.0 | 6.0 | 0.00 | 0.00 | 0.00 | 83 | -0.1 |
| 20260508003839 | 65 | 275 | 3.0 | 5.0 | 0.00 | 0.00 | 0.00 | 83 | -0.1 |
| 20260508002326 | 66 | 310 | 6.0 | 9.0 | 0.00 | 0.00 | 0.00 | 82 | -0.1 |
| 20260508001826 | 65 | 242 | 3.0 | 6.0 | 0.00 | 0.00 | 0.00 | 83 | -0.1 |
| 20260508000841 | 66 | 274 | 5.0 | 10.0 | 0.00 | 0.00 | 0.00 | 81 | -0.1 |
| 20260507235325 | 67 | 244 | 2.0 | 8.0 | 0.00 | 0.00 | 0.00 | 82 | -0.1 |
| 20260507234333 | 66 | 302 | 5.0 | 10.0 | 0.00 | 0.00 | 0.00 | 83 | -0.1 |
| 20260507232325 | 67 | 309 | 3.0 | 11.0 | 0.00 | 0.00 | 0.00 | 79 | -0.1 |
| 20260507231320 | 68 | 313 | 2.0 | 9.0 | 0.00 | 0.00 | 0.00 | 78 | -0.1 |
| 20260507230340 | 68 | 254 | 4.0 | 8.0 | 0.00 | 0.00 | 0.00 | 79 | -0.1 |
| 20260507225826 | 68 | 296 | 3.0 | 9.0 | 0.00 | 0.00 | 0.00 | 79 | -0.1 |
| 20260507225334 | 68 | 308 | 6.0 | 9.0 | 0.00 | 0.00 | 0.00 | 79 | -0.1 |
| 20260507223833 | 68 | 263 | 2.0 | 11.0 | 0.00 | 0.00 | 0.00 | 79 | -0.1 |
| 20260507223321 | 68 | 215 | 2.0 | 11.0 | 0.00 | 0.00 | 0.00 | 78 | -0.1 |
| 20260507222829 | 69 | 267 | 6.0 | 11.0 | 0.00 | 0.00 | 0.00 | 78 | -0.1 |
| 20260507222338 | 69 | 259 | 6.0 | 10.0 | 0.00 | 0.00 | 0.00 | 77 | -0.1 |
| 20260507221332 | 69 | 208 | 2.0 | 10.0 | 0.00 | 0.00 | 0.00 | 78 | -0.1 |
| 20260507215841 | 70 | 201 | 6.0 | 12.0 | 0.00 | 0.00 | 0.00 | 75 | -0.1 |
| 20260507215326 | 71 | 269 | 6.0 | 12.0 | 0.00 | 0.00 | 0.00 | 75 | -0.1 |
| 20260507214840 | 71 | 294 | 5.0 | 12.0 | 0.00 | 0.00 | 0.00 | 76 | -0.1 |
| 20260507214327 | 71 | 277 | 8.0 | 12.0 | 0.00 | 0.00 | 0.00 | 74 | -0.1 |
| 20260507213834 | 72 | 245 | 8.0 | 12.0 | 0.00 | 0.00 | 0.00 | 75 | -0.1 |
| 20260507213323 | 71 | 209 | 7.0 | 11.0 | 0.00 | 0.00 | 0.00 | 76 | -0.1 |
| 20260507212833 | 71 | 279 | 4.0 | 10.0 | 0.00 | 0.00 | 0.00 | 75 | -0.1 |
| 20260507211327 | 70 | 286 | 5.0 | 11.0 | 0.00 | 0.00 | 0.00 | 77 | -0.1 |
| 20260507210330 | 70 | 259 | 4.0 | 14.0 | 0.00 | 0.00 | 0.00 | 76 | -0.1 |
| 20260507205837 | 70 | 242 | 7.0 | 14.0 | 0.00 | 0.00 | 0.00 | 76 | -0.1 |
| 20260507205323 | 70 | 235 | 7.0 | 12.0 | 0.00 | 0.00 | 0.00 | 76 | -0.1 |
| 20260507203834 | 71 | 252 | 6.0 | 12.0 | 0.00 | 0.00 | 0.00 | 75 | -0.1 |
| 20260507203340 | 71 | 239 | 7.0 | 12.0 | 0.00 | 0.00 | 0.00 | 77 | -0.1 |
| 20260507202828 | 71 | 265 | 6.0 | 12.0 | 0.00 | 0.00 | 0.00 | 76 | -0.1 |
| 20260507202335 | 70 | 305 | 4.0 | 13.0 | 0.00 | 0.00 | 0.00 | 76 | -0.1 |
| 20260507201833 | 70 | 208 | 4.0 | 13.0 | 0.00 | 0.00 | 0.00 | 76 | -0.1 |
| 20260507201321 | 70 | 221 | 6.0 | 13.0 | 0.00 | 0.00 | 0.00 | 77 | -0.1 |
| 20260507200832 | 70 | 265 | 8.0 | 13.0 | 0.00 | 0.00 | 0.00 | 77 | -0.1 |
| 20260507195839 | 69 | 270 | 6.0 | 12.0 | 0.00 | 0.00 | 0.00 | 78 | -0.1 |
| 20260507194333 | 69 | 286 | 4.0 | 12.0 | 0.00 | 0.00 | 0.00 | 78 | -0.1 |
| 20260507193839 | 69 | 286 | 3.0 | 10.0 | 0.00 | 0.00 | 0.00 | 78 | -0.1 |
| 20260507190823 | 69 | 244 | 5.0 | 11.0 | 0.00 | 0.00 | 0.00 | 79 | -0.1 |
| 20260507185833 | 69 | 258 | 3.0 | 11.0 | 0.00 | 0.00 | 0.00 | 79 | -0.1 |
| 20260507184833 | 69 | 245 | 5.0 | 12.0 | 0.00 | 0.00 | 0.00 | 79 | -0.1 |
| 20260507184339 | 68 | 287 | 6.0 | 12.0 | 0.00 | 0.00 | 0.00 | 79 | -0.1 |
| 20260507181836 | 69 | 253 | 7.0 | 10.0 | 0.00 | 0.00 | 0.00 | 78 | -0.1 |
| 20260507181323 | 69 | 286 | 5.0 | 10.0 | 0.00 | 0.00 | 0.00 | 79 | -0.1 |
| 20260507180335 | 68 | 178 | 4.0 | 9.0 | 0.00 | 0.00 | 0.00 | 79 | -0.1 |
| 20260507175824 | 68 | 289 | 3.0 | 9.0 | 0.00 | 0.00 | 0.00 | 79 | -0.1 |
| 20260507175327 | 68 | 223 | 4.0 | 11.0 | 0.00 | 0.00 | 0.00 | 80 | -0.1 |
| 20260507174841 | 68 | 232 | 6.0 | 11.0 | 0.00 | 0.00 | 0.00 | 80 | -0.1 |
| 20260507173324 | 67 | 283 | 2.0 | 6.0 | 0.00 | 0.00 | 0.00 | 82 | -0.1 |
| 20260507172829 | 67 | 244 | 2.0 | 7.0 | 0.00 | 0.00 | 0.00 | 81 | -0.1 |
| 20260507172332 | 67 | 247 | 3.0 | 8.0 | 0.00 | 0.00 | 0.00 | 81 | -0.1 |
| 20260507171337 | 67 | 281 | 4.0 | 6.0 | 0.00 | 0.00 | 0.00 | 82 | -0.1 |
| 20260507170334 | 66 | 242 | 4.0 | 6.0 | 0.00 | 0.00 | 0.00 | 82 | -0.1 |
| 20260507165335 | 66 | 255 | 4.0 | 6.0 | 0.00 | 0.00 | 0.00 | 82 | -0.1 |
| 20260507163831 | 65 | 178 | 0.0 | 4.0 | 0.00 | 0.00 | 0.00 | 84 | -0.1 |
| 20260507162827 | 64 | 161 | 0.0 | 3.0 | 0.00 | 0.00 | 0.00 | 86 | -0.1 |
| 20260507155326 | 63 | 272 | 4.0 | 7.0 | 0.00 | 0.00 | 0.00 | 90 | -0.1 |
| 20260507154837 | 62 | 244 | 1.0 | 3.0 | 0.00 | 0.00 | 0.00 | 91 | -0.1 |
| 20260507154323 | 62 | 146 | 1.0 | 3.0 | 0.00 | 0.00 | 0.00 | 91 | -0.1 |
| 20260507153829 | 62 | 106 | 1.0 | 3.0 | 0.00 | 0.00 | 0.00 | 92 | -0.1 |
| 20260507151827 | 60 | 0.0 | 0.0 | 0.00 | 0.00 | 0.00 | 94 | -0.1 | |
| 20260507151330 | 60 | 0.0 | 0.0 | 0.00 | 0.00 | 0.00 | 95 | -0.1 | |
| 20260507150328 | 60 | 0.0 | 0.0 | 0.00 | 0.00 | 0.00 | 95 | -0.1 | |
| 20260507145835 | 60 | 0.0 | 0.0 | 0.00 | 0.00 | 0.00 | 95 | -0.1 | |
| 20260507144822 | 59 | 0.0 | 0.0 | 0.00 | 0.00 | 0.00 | 96 | -0.1 | |
| 20260507144330 | 59 | 0.0 | 0.0 | 0.00 | 0.00 | 0.00 | 96 | -0.1 | |
| 20260507143837 | 59 | 0.0 | 0.0 | 0.00 | 0.00 | 0.00 | 96 | -0.1 | |
| 20260507142830 | 58 | 0.0 | 0.0 | 0.00 | 0.00 | 0.00 | 96 | -0.1 | |
| 20260507142338 | 58 | 0.0 | 0.0 | 0.00 | 0.00 | 0.00 | 96 | -0.1 | |
| 20260507140333 | 57 | 0.0 | 0.0 | 0.00 | 0.00 | 0.00 | 96 | -0.1 | |
| 20260507134826 | 57 | 0.0 | 0.0 | 0.00 | 0.00 | 0.00 | 96 | -0.1 | |
| 20260507133329 | 56 | 0.0 | 0.0 | 0.00 | 0.00 | 0.00 | 96 | -0.1 | |
| 20260507132840 | 56 | 0.0 | 0.0 | 0.00 | 0.00 | 0.00 | 96 | -0.1 | |
| 20260507132328 | 56 | 0.0 | 0.0 | 0.00 | 0.00 | 0.00 | 96 | -0.1 | |
| 20260507131822 | 56 | 0.0 | 0.0 | 0.00 | 0.00 | 0.00 | 96 | -0.1 | |
| 20260507131329 | 56 | 0.0 | 0.0 | 0.00 | 0.00 | 0.00 | 96 | -0.1 | |
| 20260507125835 | 56 | 0.0 | 0.0 | 0.00 | 0.00 | 0.00 | 95 | -0.1 | |
| 20260507123323 | 55 | 0.0 | 0.0 | 0.00 | 0.00 | 0.00 | 95 | -0.1 | |
| 20260507120325 | 56 | 0.0 | 0.0 | 0.00 | 0.00 | 0.00 | 95 | -0.1 | |
| 20260507114326 | 56 | 0.0 | 0.0 | 0.00 | 0.00 | 0.00 | 94 | -0.1 | |
| 20260507112827 | 56 | 0.0 | 0.0 | 0.00 | 0.00 | 0.00 | 94 | -0.1 | |
| 20260507112337 | 56 | 0.0 | 0.0 | 0.00 | 0.00 | 0.00 | 94 | -0.1 | |
| 20260507105333 | 57 | 0.0 | 0.0 | 0.00 | 0.00 | 0.00 | 94 | -0.1 | |
| 20260507104828 | 57 | 0.0 | 0.0 | 0.00 | 0.00 | 0.00 | 94 | -0.1 | |
| 20260507103826 | 57 | 0.0 | 0.0 | 0.00 | 0.00 | 0.00 | 94 | -0.1 | |
| 20260507103330 | 57 | 0.0 | 0.0 | 0.00 | 0.00 | 0.00 | 94 | -0.1 | |
| 20260507102328 | 57 | 0.0 | 0.0 | 0.00 | 0.00 | 0.00 | 94 | -0.1 | |
| 20260507101827 | 57 | 0.0 | 0.0 | 0.00 | 0.00 | 0.00 | 94 | -0.1 | |
| 20260507100829 | 58 | 0.0 | 0.0 | 0.00 | 0.00 | 0.00 | 94 | -0.1 | |
| 20260507095337 | 58 | 0.0 | 0.0 | 0.00 | 0.00 | 0.00 | 94 | -0.1 | |
| 20260507093825 | 58 | 0.0 | 0.0 | 0.00 | 0.00 | 0.00 | 94 | -0.1 | |
| 20260507093333 | 58 | 0.0 | 0.0 | 0.00 | 0.00 | 0.00 | 94 | -0.1 | |
| 20260507092836 | 58 | 0.0 | 0.0 | 0.00 | 0.00 | 0.00 | 94 | -0.1 | |
| 20260507092322 | 58 | 0.0 | 0.0 | 0.00 | 0.00 | 0.00 | 94 | -0.1 | |
| 20260507091841 | 58 | 0.0 | 0.0 | 0.00 | 0.00 | 0.00 | 94 | -0.1 | |
| 20260507085319 | 58 | 0.0 | 0.0 | 0.00 | 0.00 | 0.00 | 94 | -0.1 | |
| 20260507082334 | 57 | 0.0 | 0.0 | 0.00 | 0.00 | 0.00 | 94 | -0.1 | |
| 20260507080324 | 57 | 0.0 | 0.0 | 0.00 | 0.00 | 0.00 | 94 | -0.1 | |
| 20260507075831 | 57 | 0.0 | 0.0 | 0.00 | 0.00 | 0.00 | 93 | -0.1 | |
| 20260507075337 | 57 | 0.0 | 0.0 | 0.00 | 0.00 | 0.00 | 93 | -0.1 | |
| 20260507074330 | 57 | 0.0 | 0.0 | 0.00 | 0.00 | 0.00 | 93 | -0.1 | |
| 20260507072323 | 57 | 0.0 | 0.0 | 0.00 | 0.00 | 0.00 | 93 | -0.1 | |
| 20260507071822 | 57 | 0.0 | 0.0 | 0.00 | 0.00 | 0.00 | 93 | -0.1 | |
| 20260507071325 | 58 | 0.0 | 0.0 | 0.00 | 0.00 | 0.00 | 93 | -0.1 | |
| 20260507070324 | 58 | 0.0 | 0.0 | 0.00 | 0.00 | 0.00 | 93 | -0.1 | |
| 20260507065339 | 58 | 0.0 | 0.0 | 0.00 | 0.00 | 0.00 | 92 | -0.1 | |
| 20260507064832 | 58 | 0.0 | 0.0 | 0.00 | 0.00 | 0.00 | 92 | -0.1 | |
| 20260507063823 | 58 | 0.0 | 0.0 | 0.00 | 0.00 | 0.00 | 92 | -0.1 | |
| 20260507062322 | 58 | 0.0 | 0.0 | 0.00 | 0.00 | 0.00 | 92 | -0.1 | |
| 20260507061821 | 58 | 0.0 | 0.0 | 0.00 | 0.00 | 0.00 | 92 | -0.1 | |
| 20260507060826 | 58 | 0.0 | 0.0 | 0.00 | 0.00 | 0.00 | 91 | -0.1 | |
| 20260507060333 | 59 | 0.0 | 0.0 | 0.00 | 0.00 | 0.00 | 91 | -0.1 | |
| 20260507055841 | 59 | 0.0 | 0.0 | 0.00 | 0.00 | 0.00 | 91 | -0.1 | |
| 20260507055324 | 59 | 0.0 | 0.0 | 0.00 | 0.00 | 0.00 | 91 | -0.1 | |
| 20260507054824 | 59 | 0.0 | 0.0 | 0.00 | 0.00 | 0.00 | 91 | -0.1 | |
| 20260507054331 | 59 | 0.0 | 0.0 | 0.00 | 0.00 | 0.00 | 90 | -0.1 | |
| 20260507053839 | 59 | 0.0 | 0.0 | 0.00 | 0.00 | 0.00 | 91 | -0.1 | |
| 20260507052340 | 59 | 0.0 | 0.0 | 0.00 | 0.00 | 0.00 | 90 | -0.1 | |
| 20260507051840 | 60 | 0.0 | 0.0 | 0.00 | 0.00 | 0.00 | 90 | -0.1 | |
| 20260507051325 | 60 | 0.0 | 0.0 | 0.00 | 0.00 | 0.00 | 90 | -0.1 | |
| 20260507050831 | 60 | 0.0 | 0.0 | 0.00 | 0.00 | 0.00 | 90 | -0.1 | |
| 20260507045328 | 60 | 0.0 | 0.0 | 0.00 | 0.00 | 0.00 | 90 | -0.1 | |
| 20260507044825 | 60 | 0.0 | 0.0 | 0.00 | 0.00 | 0.00 | 90 | -0.1 | |
| 20260507044332 | 60 | 0.0 | 0.0 | 0.00 | 0.00 | 0.00 | 91 | -0.1 | |
| 20260507042835 | 60 | 0.0 | 0.0 | 0.00 | 0.00 | 0.00 | 91 | -0.1 | |
| 20260507042321 | 60 | 0.0 | 0.0 | 0.00 | 0.00 | 0.00 | 91 | -0.1 | |
| 20260507040323 | 61 | 0.0 | 0.0 | 0.00 | 0.00 | 0.00 | 91 | -0.1 | |
| 20260507035827 | 61 | 0.0 | 0.0 | 0.00 | 0.00 | 0.00 | 90 | -0.1 | |
| 20260507035331 | 61 | 0.0 | 0.0 | 0.00 | 0.00 | 0.00 | 90 | -0.1 | |
| 20260507033338 | 61 | 0.0 | 0.0 | 0.00 | 0.00 | 0.00 | 91 | -0.1 | |
| 20260507032823 | 61 | 0.0 | 0.0 | 0.00 | 0.00 | 0.00 | 91 | -0.1 | |
| 20260507031324 | 61 | 0.0 | 0.0 | 0.00 | 0.00 | 0.00 | 90 | -0.1 |